Location: Marcé
(47.5801°N, 0.3280°W)
Time: 07:18:35
(UTC+01:00)

Vanguard 1 Rocket - Pass Details

Date: 08 December 2021
Orbit: 651 x 4224 km, 34.3° (Epoch: 23 January)

Event Time Altitude Azimuth Distance (km) Brightness Sun altitude
Exits shadow 04:56:16 43° 209° (SSW) 3,037 9.7 -36.1°
Maximum altitude 04:59:30 49° 178° (S) 3,172 9.9 -35.5°
Drops below altitude 10° 05:19:14 10° 113° (ESE) 6,984 12.6 -32.2°
Sets 05:25:41 0° 109° (ESE) 8,300 13.3 -31.1°
